2019 VD3
ephemeris date magn radius delta ra dec elong phase
Today5 Sep 202631.72.916 AU3.280 AU14h40m-15°16'60.4°17.5°
2019 VD3 - 2026-09-05
astro.vanbuitenen.nl


 
-1 year
-1 month
-1 day
Now
+1 day
+1 month
+1 year

The interactive orbit chart above shows the body's path through the solar system and its position at the given date. Green and blue lines are shown perpendicular to the ecliptic plane: Green if the path is above the ecliptic plane, blue if it is below. (Left-click and drag to rotate the view; Right-click and drag to move the view; Use scroll wheel to zoom in our out.)

The orbital elements of 2019 VD3 are:

            e (Eccentricity)                : 0.6047972
            a (Semimajor axis)              : 2.4527281
            i (Inclination)                 : 1.68378
            Ω (Longitude of ascending node) : 227.42894
            ω (Argument of perihelion)      : 153.04103
            M (Mean anomaly)                : 262.13684
            Epoch                           : 2026 Jun 09

            L (Longitude of perihelion)     : 200.47997
            B (Latitude of perihelion)      : 0.76326
            P (Orbital period in years)     : 3.84            
        

The light curve chart below shows the estimated development of the minor planet's magnitude.


The all-sky chart below shows the path of the minor planet over the same period as the light curve. The current position is marked yellow.





The following chart shows the path of the minor planet in the next few days. The field of view is optimized for (~10x50) binoculars and finderscopes.




Ephemerides:
Date       Time       RA (2000)    DEC (2000)    delta   radius  elong  phase   PA    magn
2026-09-05 00:00 UT   14 40 34.0   -15 16 28     3.280    2.916   60.4   17.5   108   31.7 
2026-09-05 08:12 UT   14 40 54.0   -15 17 57     3.282    2.914   60.1   17.5   107   31.7 
2026-09-06 00:00 UT   14 41 32.8   -15 20 50     3.287    2.911   59.7   17.4   107   31.7 
2026-09-07 00:00 UT   14 42 32.3   -15 25 14     3.294    2.905   58.9   17.3   107   31.7 
2026-09-08 00:00 UT   14 43 32.6   -15 29 41     3.301    2.900   58.2   17.2   107   31.7 
2026-09-09 00:00 UT   14 44 33.7   -15 34 10     3.308    2.895   57.5   17.1   107   31.7 
2026-09-10 00:00 UT   14 45 35.6   -15 38 41     3.315    2.889   56.8   17.0   107   31.7 
2026-09-11 00:00 UT   14 46 38.2   -15 43 14     3.322    2.884   56.1   16.8   107   31.7 
2026-09-12 00:00 UT   14 47 41.6   -15 47 49     3.329    2.879   55.4   16.7   107   31.7 
2026-09-13 00:00 UT   14 48 45.7   -15 52 26     3.335    2.873   54.7   16.6   107   31.7 
2026-09-14 00:00 UT   14 49 50.5   -15 57 05     3.342    2.868   54.0   16.5   107   31.7 
2026-09-15 00:00 UT   14 50 56.1   -16 01 46     3.348    2.862   53.3   16.4   107   31.7 
2026-09-16 00:00 UT   14 52 02.4   -16 06 28     3.354    2.857   52.6   16.2   107   31.7 
2026-09-17 00:00 UT   14 53 09.5   -16 11 12     3.360    2.851   51.9   16.1   107   31.7 
2026-09-18 00:00 UT   14 54 17.2   -16 15 58     3.366    2.846   51.2   16.0   106   31.7 
2026-09-19 00:00 UT   14 55 25.7   -16 20 45     3.372    2.840   50.5   15.8   106   31.7 
2026-09-20 00:00 UT   14 56 34.8   -16 25 33     3.377    2.835   49.8   15.7   106   31.7 
2026-09-21 00:00 UT   14 57 44.7   -16 30 23     3.383    2.829   49.1   15.6   106   31.7 
2026-09-22 00:00 UT   14 58 55.2   -16 35 13     3.388    2.823   48.4   15.4   106   31.7 
2026-09-23 00:00 UT   15 00 06.5   -16 40 05     3.393    2.818   47.8   15.3   106   31.6 
2026-09-24 00:00 UT   15 01 18.4   -16 44 58     3.398    2.812   47.1   15.1   106   31.6 
2026-09-25 00:00 UT   15 02 31.0   -16 49 52     3.403    2.807   46.4   15.0   106   31.6 
2026-09-26 00:00 UT   15 03 44.3   -16 54 47     3.408    2.801   45.7   14.9   106   31.6 
2026-09-27 00:00 UT   15 04 58.2   -16 59 42     3.412    2.795   45.1   14.7   106   31.6 
2026-09-28 00:00 UT   15 06 12.9   -17 04 39     3.417    2.790   44.4   14.6   105   31.6 
2026-09-29 00:00 UT   15 07 28.2   -17 09 36     3.421    2.784   43.7   14.4   105   31.6 
2026-09-30 00:00 UT   15 08 44.1   -17 14 33     3.425    2.778   43.0   14.2   105   31.6 
2026-10-01 00:00 UT   15 10 00.8   -17 19 32     3.429    2.773   42.4   14.1   105   31.6 
2026-10-02 00:00 UT   15 11 18.0   -17 24 30     3.433    2.767   41.7   13.9   105   31.6 
2026-10-03 00:00 UT   15 12 36.0   -17 29 29     3.437    2.761   41.0   13.8   105   31.6 
2026-10-04 00:00 UT   15 13 54.6   -17 34 29     3.440    2.755   40.4   13.6   105   31.6 


    Terminology:
            
    delta:  distance between minor planet and earth in AU
    radius: distance between minor planet and sun in AU
    magn:   magnitude (brightness) estimate    
    ra:     right ascension in hours (24h = 360deg)
    dec:    declination in degrees
    elong:  elongation in degrees (angle sun-earth-minor planet)    
    phase:  phase angle in degrees (angle sun-minor planet-earth)        
    AU:     Astronomical Unit (mean distance between earth and sun: 149597870.7 km
    

Orbital elements provided by the MPC (Minor Planet Center).
Calculations by a modified version of AAPlus, a C# implementation of the AA+ project by PJ Naughter from the algorithms presented in the book "Astronomical Algorithms" by Jean Meeus.
NGC2000 dso catalog and star labels from VizieR as provided by the Strasbourg astronomical Data Center.
Tycho2 catalog from the ESO archive.